Volver al catálogo

FENGYUN 1C DEB

ActivoSSO
NORAD 30803·DEBRIS·🇨🇳 China

Lanzado May 10, 1999 desde Taiyuan Satellite Launch Center

Loading…

Próximos Pases (próximas 24 horas)

TLE

ActualizadoSource: Space-Track

Época: Sep 14, 2026, 10:01 UTC

1 30803U 99025AUM 26257.41768937  .00001390  00000-0  73876-3 0  9993
2 30803  99.2265 303.7349 0105928 150.2467 224.2883 14.12406037998898

Sigue FENGYUN 1C DEB en tiempo real con AllMySat

Download on the App Store